"Pseudo-MPEC" for C3722W2

Created 2020 Sep 18 3:07:12 UT using Find_Orb

Click here for an explanation of pseudo-MPECs

 
 Astrometry: 
     C3722W2  C2020 09 16.37641 03 21 20.57 +53 07 13.4    ~9G9q 19.7 GVNEOCPG96
     C3722W2  C2020 09 16.38161 03 21 14.82 +53 07 07.1    ~9G9q 20.2 GVNEOCPG96
     C3722W2  C2020 09 16.38680 03 21 09.09 +53 07 01.0    ~9G9q 19.9 GVNEOCPG96
     C3722W2  C2020 09 16.39201 03 21 03.48 +53 06 55.2    ~9G9q 20.1 GVNEOCPG96
     C3722W2  C2020 09 16.46836 03 19 40.31 +53 05 16.3    ~9GBb 19.5 GVNEOCPI52
     C3722W2  C2020 09 16.47019 03 19 38.36 +53 05 13.2    ~9GBb 18.9 GVNEOCPI52
     C3722W2  C2020 09 16.47110 03 19 37.27 +53 05 12.3    ~9GBb 19.4 GVNEOCPI52
     C3722W2 KC2020 09 16c^oV:'ahW6#:t`a(ln=N,pI_bpsK/B[5Bup)=M@tB:Z)v'*jDXP:104
     C3722W2 KC2020 09 16[FTw='AstrometryLI];kX1tu9no[c)_0*/Z4#o[WFx8HJa+?RcP104
     C3722W2 KC2020 09 16'8Cu-$^7CxGE\0Zp4)QEPO^xSE*LRGWY`TG%m^E`G'p[w*e)*;2h104
     C3722W2 KC2020 09 16.95362603 11 45.74 +52 52 27.6    ~9GNb 20.4 GVNEOCPI93
     C3722W2 KC2020 09 16.95943603 11 39.98 +52 52 20.4    ~9GNb 19.6 GVNEOCPI93
     C3722W2 KC2020 09 16.96536503 11 34.21 +52 52 13.1    ~9GNb 19.6 GVNEOCPI93
     C3722W2 KC2020 09 17mfgQl?yIx9J-`)E+y+,UhW:-`DHsfo9SG+sF/K9YXyb2xm1]y79AK38
     C3722W2 KC2020 09 17ISN/QP\=FOpm[Cmjo,#M+e:*2Kge=Z-fg5Of2[fa,Yv)@xfwK@/NL04
     C3722W2 KC2020 09 17kwnb1UNyjX=0DSv+9/\BiVuUT!'pA6yfgmOyWRliIW3V-so=Ul`eK38
     C3722W2 KC2020 09 17.04986003 10 10.66 +52 50 25.0    ~9H9q 19.5 GVNEOCPC95
     C3722W2 KC2020 09 17g?BCjc3i)!62T8D,^3/;GfIt5@O'nHv4jsX--!kb7#p)!Vgie]6QL04
     C3722W2 KC2020 09 17.05892703 10 01.73 +52 50 12.2    ~9H9q 19.8 GVNEOCPC95
     C3722W2 KC2020 09 17.06797603 09 52.68 +52 49 58.1    ~9H9q 21.1 GVNEOCPC95
     C3722W2 KC2020 09 17`dgZ9H:aq7Oa0-Iq.:3y=)(s_JbKaRVGC'/lup=2FXw-'nA(o91RL01
     C3722W2 KC2020 09 172KNv=RdBPE+vt!9-!q*/yR%t4t3LyK(M!E--cO]bZY]6LD7x(FQ4L01
     C3722W2 KC2020 09 17KKI9#Ll(/redacted;@).M6LWNhka%'4#s2+sctEhCy'KN(4newuL01
     C3722W2 KC2020 09 17UI,)kRkq3YN,EZ.T%PQ$2+)`3r.Ro]-rj7cv\4/;cp`wPH+UR63dH21
     C3722W2 KC2020 09 17ApJ.hX`7G/`^M\t;EiX;)/k+:^PgHK8M3+sr!uclick[;3bQ.$wwH21
     C3722W2 KC2020 09 176l'F82`lJkZsrF*Rhere+#$ax`V2H.t_K=+,cCs#6CHJp?vpINV-V01
     C3722W2 KC2020 09 17=%mMko[?vtjmw0Ipg996c0U9$B\*OScB'.7Mg7r4qoDt?24XHQBWH21
     C3722W2 KC2020 09 17E#[g9?G)^NkODsq5k+,:*[YIkThOykdf^)(+f@3XJX+AGv.60io8H36
     C3722W2 KC2020 09 17:xl('lMk22u;q;5+M_=XZdT;LD%;m`-.8T6@d12P`'GqRO0I.Eh`H36
     C3722W2 KC2020 09 17:a?0.%qK-8KKI8!0sHfjU;!$#FFt`a5%KC_B:WHGoMres(9un)PdH36
     C3722W2 KC2020 09 17^/A^UoDp*$A(cBtfCi9;aYhforjr=8UnV:WxxfGw],!X4P08S'0HV01
     C3722W2 KC2020 09 17Bijfa-%pU50fg/S5,jAa/%S?qILRYNtHac%@Z5Uj!CSTX9xST!b3711
     C3722W2 KC2020 09 17T'*#-\7[W_Sr#X8]mm'I65WH(V!]WcJeDUBQ7YfHs?@vRX3ynHp)711
     C3722W2 KC2020 09 17?f\t#m8M2\(Tht4TB-t=]Op%Ud(LHbE4x?7kWd#nG1\AE6=,d4iD711
     C3722W2 KC2020 09 17d9explanation$s$,ELHD:FQkOoHCpYYkYJc?4w/3a75wZ,EYFkw204
     C3722W2 KC2020 09 17Q\LG*Jq=)cvSLBI%Ue'lbi4n4m;YDF;Kmyu?$(mXT/TWh/BIUv1D204

Station data:
(104) San Marcello Pistoiese  (N44.063037 E10.804200)  Italy. 0.40-m f/5
   reflector.
(204) Schiaparelli Observatory  (N45.867933 E8.770800)  Italy.  Observer L.
   Buzzi. 0.60-m f/4.64 Newtonian + CCD.
(711) McDonald Observatory, Fort Davis  (N30.671481 W104.021500)  US/Texas.
   0.76-m f/3.0 reflector.
(C95) SATINO Remote Observatory, Haute Provence  (N43.932042 E5.712390)
   France.  Observer J. Jahn. 0.60-m f/3.2 Newtonian reflector + CCD.
(G96) Mt. Lemmon Survey  (N32.442754 W110.788720)  US/Arizona.  Observers T.
   A. Pruyne, B. M. Africano, E. J. Christensen, G. A. Farneth, D. C. Fuls,
   A. R. Gibbs, A. D. Grauer, H. Gröller, J. A. Johnson, R. A. Kowalski, S.
   M. Larson, G. J. Leonard, D. Rankin, R. L. Seaman, F. C. Shelly. 1.5-m
   reflector + 10K CCD.
(H21) Astronomical Research Observatory, Westfield  (N39.483057 W87.968270)
   US/Illinois. 0.76-m f/3.0 astrograph + CCD.
(H36) Sandlot Observatory, Scranton  (N38.797693 W95.706400)  US/Kansas.
   Observer G. Hug. 0.56-m reflector + CCD.
(I52) Steward Observatory, Mt. Lemmon Station  (N32.442547 W110.788920)
   US/Arizona.  Observers T. A. Pruyne, B. M. Africano, E. J. Christensen, G.
   A. Farneth, D. C. Fuls, A. R. Gibbs, A. D. Grauer, H. Gröller, J. A.
   Johnson, R. A. Kowalski, S. M. Larson, G. J. Leonard, D. Rankin, R. L.
   Seaman, F. C. Shelly. 1.0-m reflector + CCD.
(I93) St Pardon de Conques  (N44.558710 W0.203000)  France.  Observer F.
   Losse. 0.40-m f/3.7 reflector + CCD.
(K38) M57 Observatory, Saltrio  (N45.873785 E8.918240)  Italy.
(L01) Višnjan Observatory, Tičan  (N45.290900 E13.749300)  Croatia.
   Observers K. Korlević, E. Pettarin. Measurer E. Pettarin. 1.0-m f/2.9
   reflector + CCD.
(L04) ROASTERR-1 Observatory, Cluj-Napoca  (N46.820954 E23.596400)  Romania.
(V01) Mountainville Observatory, Alpine  (N40.448904 W111.760890)  US/Utah.

Orbital elements:  C3722W2
   Perihelion 2020 Aug 9.422419 +/- 0.0307 TT = 10:08:17 (JD 2459070.922419)
Epoch 2020 Sep 17.0 TT = JDT 2459109.5   Earth MOID: 0.0271   AutoNEOCP
M  11.02342234 +/- 0.08             (J2000 ecliptic)
n   0.28574685 +/- 0.00211          Peri.  324.31384 +/- 0.019
a   2.28287297 +/- 0.0112           Node   342.75243 +/- 0.008
e   0.6093195 +/- 0.00203           Incl.   10.68254 +/- 0.024
P   3.45                   H 23.1   G  0.15   U  8.6  
q 0.89187393 +/- 0.000289    Q 3.67387201 +/- 0.0225
From 36 observations 2020 Sept. 16-17 (38.1 hr); mean residual 0".37
Residuals in arcseconds: 
200916 G96  .30+  .22+    200916 I93  .14-  .13+    200917 H21  .06+  .44-    
200916 G96  .33-  .12-    200917 K38  .51+  .29+    200917 V01  .06-  1.1+    
200916 G96  .87-  .20-    200917 L04  .21-  .27-    200917 H21  .25-  .11-    
200916 G96  .13-  .12+    200917 K38  .00   .62+    200917 H36  .10-  .08+    
200916 I52  .44+  .12+    200917 C95  .32+  .00     200917 H36  .97-  .16-    
200916 I52  .77+  .39-    200917 L04  .27+  .31-    200917 H36  .15-  .03+    
200916 I52  .16-  .00     200917 C95  .55+  .25+    200917 V01  .30+  .26-    
200916 104  .53-  .80-    200917 C95  .49-  .64-    200917 711  .19-  .27+    
200916 104  .24+  .28-    200917 L01  .20+  .31+    200917 711  .10-  .19+    
200916 104  .25-  .60+    200917 L01  .18+  .14-    200917 711  .19-  .21+    
200916 I93  .39+  .01-    200917 L01  .10-  .12+    200917 204  .41+  .30-    
200916 I93  .38-  .01+    200917 H21  .37+  .05-    200917 204  .03-  .28-    

Ephemerides (geocentric):
Date (UTC) HH   RA              Dec         delta   r     elong  mag " sig PA
---- -- -- --  -------------   -----------  ------ ------ -----  --- ---- ---
2020 09 18 03  02 54 23.937   +52 19 27.85  .10174 1.0482 112.6 20.4 .082  86
2020 09 18 04  02 53 50.171   +52 18 11.49  .10201 1.0485 112.7 20.4 .084  86
2020 09 18 05  02 53 16.599   +52 16 54.85  .10227 1.0488 112.9 20.4 .085  86
2020 09 18 06  02 52 43.221   +52 15 37.94  .10253 1.0491 113.0 20.5 .087  87
2020 09 18 07  02 52 10.035   +52 14 20.76  .10279 1.0494 113.1 20.5 .089  87
2020 09 18 08  02 51 37.039   +52 13 03.33  .10305 1.0496 113.2 20.5 .091  87
2020 09 18 09  02 51 04.233   +52 11 45.65  .10332 1.0499 113.3 20.5 .093  87
2020 09 18 10  02 50 31.614   +52 10 27.72  .10358 1.0502 113.4 20.5 .095  87
2020 09 18 11  02 49 59.183   +52 09 09.56  .10384 1.0505 113.5 20.5 .098  87
2020 09 18 12  02 49 26.936   +52 07 51.16  .10411 1.0508 113.6 20.5 .100  88
2020 09 18 13  02 48 54.873   +52 06 32.54  .10437 1.0511 113.7 20.5 .102  88
2020 09 18 14  02 48 22.993   +52 05 13.71  .10463 1.0514 113.9 20.5 .104  88
2020 09 18 15  02 47 51.295   +52 03 54.65  .10490 1.0517 114.0 20.5 .107  88
2020 09 18 16  02 47 19.776   +52 02 35.39  .10516 1.0520 114.1 20.5 .109  88
2020 09 18 17  02 46 48.436   +52 01 15.93  .10543 1.0523 114.2 20.5 .112  88
2020 09 18 18  02 46 17.274   +51 59 56.28  .10569 1.0526 114.3 20.5 .114  88
2020 09 18 19  02 45 46.287   +51 58 36.43  .10596 1.0529 114.4 20.5 .117  88
2020 09 18 20  02 45 15.476   +51 57 16.40  .10622 1.0531 114.5 20.5 .120  87
2020 09 18 21  02 44 44.838   +51 55 56.19  .10649 1.0534 114.6 20.5 .123  87
2020 09 18 22  02 44 14.373   +51 54 35.81  .10675 1.0537 114.7 20.5 .125  87
2020 09 18 23  02 43 44.079   +51 53 15.25  .10702 1.0540 114.8 20.5 .128  87
2020 09 19 00  02 43 13.954   +51 51 54.54  .10728 1.0543 114.9 20.5 .131  87
2020 09 19 01  02 42 43.999   +51 50 33.67  .10755 1.0546 115.0 20.5 .134  87
2020 09 19 02  02 42 14.210   +51 49 12.64  .10782 1.0549 115.1 20.5 .137  87
2020 09 19 03  02 41 44.589   +51 47 51.46  .10808 1.0552 115.2 20.5 .140  87
2020 09 19 04  02 41 15.132   +51 46 30.14  .10835 1.0555 115.4 20.5 .143  86
2020 09 19 05  02 40 45.839   +51 45 08.68  .10862 1.0558 115.5 20.5 .146  86
2020 09 19 06  02 40 16.709   +51 43 47.09  .10888 1.0561 115.6 20.5 .150  86
2020 09 19 07  02 39 47.740   +51 42 25.36  .10915 1.0564 115.7 20.5 .153  86
2020 09 19 08  02 39 18.932   +51 41 03.51  .10942 1.0567 115.8 20.5 .156  86
2020 09 19 09  02 38 50.283   +51 39 41.54  .10969 1.0570 115.9 20.5 .159  86
2020 09 19 10  02 38 21.792   +51 38 19.45  .10995 1.0573 116.0 20.5 .163  85
2020 09 19 11  02 37 53.458   +51 36 57.25  .11022 1.0576 116.1 20.5 .166  85
2020 09 19 12  02 37 25.280   +51 35 34.94  .11049 1.0579 116.2 20.5 .170  85
2020 09 19 13  02 36 57.256   +51 34 12.53  .11076 1.0582 116.3 20.5 .173  85
2020 09 19 14  02 36 29.386   +51 32 50.01  .11103 1.0584 116.4 20.5 .177  85
2020 09 19 15  02 36 01.669   +51 31 27.40  .11129 1.0587 116.5 20.5 .180  84
2020 09 19 16  02 35 34.102   +51 30 04.69  .11156 1.0590 116.6 20.5 .184  84
2020 09 19 17  02 35 06.687   +51 28 41.89  .11183 1.0593 116.7 20.5 .188  84
2020 09 19 18  02 34 39.420   +51 27 19.01  .11210 1.0596 116.8 20.5 .192  84
2020 09 19 19  02 34 12.301   +51 25 56.05  .11237 1.0599 116.9 20.5 .195  84
2020 09 19 20  02 33 45.330   +51 24 33.01  .11264 1.0602 117.0 20.6 .199  83
2020 09 19 21  02 33 18.505   +51 23 09.89  .11291 1.0605 117.1 20.6 .203  83
2020 09 19 22  02 32 51.824   +51 21 46.70  .11318 1.0608 117.2 20.6 .207  83
2020 09 19 23  02 32 25.288   +51 20 23.44  .11345 1.0611 117.3 20.6 .211  83
2020 09 20 00  02 31 58.894   +51 19 00.12  .11372 1.0614 117.4 20.6 .215  82
2020 09 20 01  02 31 32.642   +51 17 36.73  .11399 1.0617 117.5 20.6 .219  82
2020 09 20 02  02 31 06.531   +51 16 13.29  .11426 1.0620 117.6 20.6 .223  82